Regional Weather Roundup
Issued by NWS Sterling, VA

Home | Current Version | Previous Version | Graphics & Text | Print | Product List | Glossary On
Versions: 1 2 3 4 5 6 7 8 9 10 11 12 13 14 15 16 17 18 19 20 21 22 23 24 25 26 27
000
ASUS41 KLWX 281110
RWRLWX

REGIONAL WEATHER ROUNDUP
NATIONAL WEATHER SERVICE BALTIMORE MD/WASHINGTON DC
700 AM EDT SAT MAY 28 2016

Note: "FAIR" indicates few or no clouds below 12,000 feet
with no significant weather and/or obstructions to visibility.
 TC=TEMPERATURE CELSIUS

 * =Non NWS site. Station does not report precipitation (e.g. rain,
    snow, etc.), thunder, or fog.

DCZ001-MDZ009-015-VAZ040>042-051-053>054-281200-
WASHINGTON METRO

CITY           SKY/WX    TMP DP  RH WIND       PRES   REMARKS
WASHINGTON NAT FAIR      71  63  75 S9        30.14R
DULLES         FAIR      70  63  78 S3        30.13R
ANDREWS AFB    SUNNY     69  60  73 S8        30.13R
FT BELVOIR     FAIR      67  63  85 SE2       30.14R
QUANTICO       FAIR      71  61  70 S8        30.14R
COLLEGE PARK*  FAIR      72  61  68 CALM      30.13S
LEESBURG*      FAIR      70  70 100 CALM      30.14R
MANASSAS*      SUNNY     68  64  88 CALM      30.13R

$$

MDZ006>007-011-014-281200-
BALTIMORE METRO

CITY           SKY/WX    TMP DP  RH WIND       PRES   REMARKS
BWI AIRPORT    MOSUNNY   69  63  81 CALM      30.13R
MD SCIENCE CTR   N/A     72  63  73 MISG      30.14R
MARTIN STATE   MOSUNNY   72  68  88 SE6       30.15R
ANNAPOLIS      SUNNY     69  63  81 S6        30.13R
FORT MEADE*    SUNNY     63  63 100 CALM      30.16R

$$

MDZ012-015-019>023-281200-
MARYLAND EASTERN SHORE

CITY           SKY/WX    TMP DP  RH WIND       PRES   REMARKS
OCEAN CITY     SUNNY     69  64  84 VRB3      30.17R
SALISBURY      SUNNY     67  64  90 CALM      30.17R
BAY BRIDGE AP* SUNNY     72  61  68 S7        30.14R
CAMBRIDGE*     SUNNY     68  63  83 CALM      30.15S
EASTON*        SUNNY     72  66  83 S5        30.18S

$$

MDZ017>025-281200-
SOUTHERN MARYLAND

CITY           SKY/WX    TMP DP  RH WIND       PRES   REMARKS
PATUXENT RIVER SUNNY     69  59  70 VRB5      30.14S
ST INIGOES     SUNNY     69  61  75 S6        30.15R
LEONARDTOWN*   SUNNY     68  59  73 SW5       30.16S

$$

MDZ003>005-281200-
NORTH CENTRAL MARYLAND

CITY           SKY/WX    TMP DP  RH WIND       PRES   REMARKS
FREDERICK*     SUNNY     66  66 100 CALM      30.15S HAZE
HAGERSTOWN APT MOSUNNY   70  65  84 S3        30.14R
WESTMINSTER*   SUNNY     70  64  83 CALM      30.15R

$$

MDZ501>502-281200-
WESTERN MARYLAND

CITY           SKY/WX    TMP DP  RH WIND       PRES   REMARKS
OAKLAND*       CLOUDY    64  59  82 SW7       30.23R
CUMBERLAND*    CLOUDY    66  66 100 CALM      30.19R

$$

VAZ025>031-281200-
SHENANDOAH VALLEY

CITY           SKY/WX    TMP DP  RH WIND       PRES   REMARKS
WINCHESTER*    FAIR      66  64  94 CALM      30.14R
FRONT ROYAL*   FAIR      66  64  94 S3        30.13R
LURAY*         FAIR      63  63 100 CALM      30.16R FOG
NEW MARKET*    FAIR      62  62 100 CALM      30.15R
STAUNTON*      FAIR      62  62 100 CALM      30.19R FOG
WAYNESBORO*    FAIR      63  62  96 CALM      30.18R

$$

WVZ021-048>050-054>055-281200-
EASTERN WEST VIRGINIA PANHANDLE

CITY           SKY/WX    TMP DP  RH WIND       PRES   REMARKS
MARTINSBURG    FAIR      66  64  93 CALM      30.13R
PETERSBURG*    FOG       63  63 100 CALM      30.17R VSB 1/4

$$

VAZ036>039-050-281200-
CENTRAL FOOTHILLS

CITY           SKY/WX    TMP DP  RH WIND       PRES   REMARKS
CHARLOTTESVILL FAIR      69  63  81 S7        30.14R
CULPEPER*      FAIR      70  64  83 CALM      30.14R
ORANGE*        FAIR      68  64  88 CALM      30.16R
GORDONSVILLE*  FAIR      67  64  91 CALM      30.14R
WARRENTON*     FAIR      71  59  66 CALM      30.14R

$$

VAZ055>057-281200-
NORTH AND CENTRAL PIEDMONT

CITY           SKY/WX    TMP DP  RH WIND       PRES   REMARKS
FREDERICKSBRG* FAIR      69  62  78 SW3       30.13R
STAFFORD*      FAIR      67  60  77 S5        30.18R

$$

NCZ024-NYZ072-PAZ021-071-VAZ022-071-281200-
OTHER REGIONAL OBSERVATIONS

CITY           SKY/WX    TMP DP  RH WIND       PRES   REMARKS
NEW YORK CITY  MOSUNNY   72  58  61 W8G17     30.14R
PHILADELPHIA   PTSUNNY   69  60  73 S6        30.15R
PITTSBURGH     PTSUNNY   66  62  87 SE3       30.12R
ROANOKE        FAIR      64  62  93 CALM      30.19R
RICHMOND       FAIR      64  61  90 CALM      30.17R
RALEIGH        MOSUNNY   61  59  93 CALM      30.18R

$$

ANZ530>537-281200-
MARINE OBSERVATIONS

STATION/POSITION TIME  TEMP    WIND        PRES
                       AIR SEA DIR/SP/G
                 (UTC) (F)     (DEG/KT/KT) (MB)
THOMAS PT LIGHT  1100   69 65  170/ 11/ 12 1021.8R
BALT KEY BRIDGE  1000   70     120/  4/  5 1019.9R
COVE POINT       1000   69     220/  8/ 11 1021.0R
LEWISETTA        1000   69 64  240/  8/ 10 1020.5R
SOLOMONS ISLAND  1000   69 67  180/  3/  5   N/A
PINEY POINT      1000          220/  5/  6   N/A

$$





USA.gov is the U.S. government's official web portal to all federal, state and local government web resources and services.